CFE8761 EGLC-EDDF

Flight info

Callsign CFE8761
Flight time 1h 8m
Altitude 37000
Route SOQQA M87 UMTUM UL9 KONAN UL607 SPI T180 NIVNU T847 IMCOM IMCOM1D
Aircraft E190/M-SDE3GILORVW/S

Departure

Time 2026-04-14 15:02
Airport London City Airport (EGLC)

Arrival

Time 2026-04-14 16:11
Airport Frankfurt Main Airport (EDDF)
Time Latitude Longitude Altitude Speed Heading
2026-04-14 14:50 51.50437 0.04827 24 ft 0 kts 309°
2026-04-14 14:59 51.50448 0.04822 24 ft 3 kts 13°
2026-04-14 14:59 51.50465 0.04885 25 ft 10 kts 92°
2026-04-14 14:59 51.50462 0.05017 25 ft 13 kts 96°
2026-04-14 15:00 51.50446 0.05178 25 ft 15 kts 92°
2026-04-14 15:00 51.50441 0.05369 25 ft 18 kts 93°
2026-04-14 15:00 51.50434 0.05592 25 ft 21 kts 92°
2026-04-14 15:00 51.50428 0.05846 25 ft 23 kts 94°
2026-04-14 15:01 51.50418 0.06124 25 ft 26 kts 91°
2026-04-14 15:01 51.50409 0.06405 26 ft 21 kts 92°
2026-04-14 15:01 51.50420 0.06576 26 ft 10 kts 28°
2026-04-14 15:01 51.50489 0.06565 26 ft 7 kts 279°
2026-04-14 15:02 51.50491 0.06534 26 ft 8 kts 274°
2026-04-14 15:02 51.50512 0.05879 25 ft 105 kts 273°
2026-04-14 15:02 51.50576 0.04310 234 ft 160 kts 270°
2026-04-14 15:02 51.50659 0.02568 1210 ft 165 kts 273°
2026-04-14 15:03 51.51246 0.00832 1760 ft 201 kts 315°
2026-04-14 15:03 51.52585 -0.00030 2182 ft 215 kts 354°
2026-04-14 15:03 51.54115 -0.00168 2268 ft 237 kts 356°
2026-04-14 15:03 51.55833 0.00013 2879 ft 249 kts 21°
2026-04-14 15:04 51.57164 0.01526 2982 ft 230 kts 62°
2026-04-14 15:04 51.57706 0.03898 3035 ft 226 kts 80°
2026-04-14 15:04 51.58126 0.06482 3027 ft 238 kts 79°
2026-04-14 15:04 51.58549 0.08978 2991 ft 226 kts 79°
2026-04-14 15:05 51.58965 0.11421 3001 ft 225 kts 79°
2026-04-14 15:05 51.59382 0.13854 3007 ft 226 kts 79°
2026-04-14 15:05 51.59804 0.16307 3009 ft 227 kts 79°
2026-04-14 15:05 51.60199 0.18734 3003 ft 225 kts 87°
2026-04-14 15:06 51.60292 0.21263 3015 ft 224 kts 92°
2026-04-14 15:06 51.60345 0.23749 3008 ft 224 kts 93°
2026-04-14 15:06 51.60397 0.26243 3007 ft 223 kts 93°
2026-04-14 15:06 51.60449 0.28716 3007 ft 223 kts 92°
2026-04-14 15:07 51.60500 0.31198 3006 ft 221 kts 93°
2026-04-14 15:07 51.60551 0.33690 2994 ft 222 kts 92°
2026-04-14 15:07 51.60601 0.36182 3000 ft 222 kts 92°
2026-04-14 15:07 51.60646 0.38646 2995 ft 222 kts 95°
2026-04-14 15:08 51.60453 0.41137 3190 ft 235 kts 103°
2026-04-14 15:08 51.60181 0.43848 3670 ft 258 kts 102°
2026-04-14 15:08 51.59886 0.46796 4337 ft 273 kts 102°
2026-04-14 15:08 51.59583 0.49825 5202 ft 279 kts 102°
2026-04-14 15:09 51.59272 0.52917 6151 ft 282 kts 101°
2026-04-14 15:09 51.58720 0.55897 7075 ft 281 kts 124°
2026-04-14 15:09 51.57325 0.57940 7988 ft 278 kts 157°
2026-04-14 15:09 51.55484 0.58709 8901 ft 278 kts 171°
2026-04-14 15:10 51.53582 0.59237 9809 ft 283 kts 172°
2026-04-14 15:10 51.51625 0.59754 10691 ft 289 kts 172°
2026-04-14 15:10 51.49621 0.60271 11487 ft 299 kts 172°
2026-04-14 15:10 51.47545 0.60800 12202 ft 311 kts 172°
2026-04-14 15:11 51.45372 0.61351 12940 ft 322 kts 172°
2026-04-14 15:11 51.43124 0.61919 13807 ft 329 kts 173°
2026-04-14 15:11 51.40939 0.62980 14738 ft 339 kts 150°
2026-04-14 15:11 51.39186 0.65519 15596 ft 347 kts 131°
2026-04-14 15:12 51.37663 0.68539 16462 ft 352 kts 130°
2026-04-14 15:12 51.36100 0.71632 17297 ft 357 kts 130°
2026-04-14 15:12 51.34533 0.74725 18014 ft 363 kts 130°
2026-04-14 15:12 51.32928 0.77886 18748 ft 369 kts 130°
2026-04-14 15:13 51.31303 0.81084 19414 ft 377 kts 129°
2026-04-14 15:13 51.29626 0.84379 20075 ft 383 kts 129°
2026-04-14 15:13 51.27942 0.87684 20751 ft 388 kts 129°
2026-04-14 15:13 51.26237 0.91027 21406 ft 394 kts 129°
2026-04-14 15:14 51.24509 0.94409 22050 ft 398 kts 129°
2026-04-14 15:14 51.22757 0.97833 22659 ft 404 kts 129°
2026-04-14 15:14 51.21102 1.01494 23205 ft 409 kts 114°
2026-04-14 15:14 51.20250 1.05775 23778 ft 410 kts 99°
2026-04-14 15:15 51.19658 1.10208 24376 ft 414 kts 98°
2026-04-14 15:15 51.19069 1.14673 24991 ft 417 kts 98°
2026-04-14 15:15 51.18466 1.19253 25586 ft 422 kts 98°
2026-04-14 15:15 51.17868 1.23793 26178 ft 425 kts 98°
2026-04-14 15:16 51.17260 1.28388 26701 ft 430 kts 97°
2026-04-14 15:16 51.16637 1.33082 27240 ft 435 kts 97°
2026-04-14 15:16 51.16158 1.37812 27768 ft 434 kts 89°
2026-04-14 15:16 51.15934 1.42708 28333 ft 437 kts 88°
2026-04-14 15:17 51.15710 1.47506 28818 ft 442 kts 88°
2026-04-14 15:17 51.15473 1.52450 29341 ft 446 kts 88°
2026-04-14 15:17 51.15232 1.57414 29814 ft 450 kts 88°
2026-04-14 15:17 51.14983 1.62486 30323 ft 453 kts 88°
2026-04-14 15:18 51.14733 1.67562 30765 ft 458 kts 89°
2026-04-14 15:18 51.14482 1.72595 31188 ft 462 kts 89°
2026-04-14 15:18 51.14223 1.77719 31636 ft 465 kts 89°
2026-04-14 15:18 51.13966 1.82796 32088 ft 467 kts 88°
2026-04-14 15:19 51.13700 1.87977 32604 ft 467 kts 88°
2026-04-14 15:19 51.13433 1.93132 33185 ft 465 kts 88°
2026-04-14 15:19 51.13169 1.98197 33760 ft 463 kts 87°
2026-04-14 15:19 51.12920 2.03313 34392 ft 458 kts 86°
2026-04-14 15:20 51.12693 2.08337 34918 ft 457 kts 86°
2026-04-14 15:20 51.12460 2.13352 35375 ft 458 kts 86°
2026-04-14 15:20 51.12222 2.18439 35804 ft 458 kts 86°
2026-04-14 15:20 51.11983 2.23490 36229 ft 459 kts 86°
2026-04-14 15:21 51.11742 2.28543 36726 ft 460 kts 86°
2026-04-14 15:21 51.11497 2.33618 37164 ft 456 kts 86°
2026-04-14 15:21 51.10999 2.43868 37189 ft 475 kts 86°
2026-04-14 15:22 51.10470 2.54465 37184 ft 485 kts 87°
2026-04-14 15:22 51.09829 2.65156 37178 ft 492 kts 94°
2026-04-14 15:23 51.07987 2.75899 37181 ft 497 kts 100°
2026-04-14 15:23 51.06006 2.86509 37182 ft 495 kts 100°
2026-04-14 15:24 51.04120 2.96560 37181 ft 494 kts 100°
2026-04-14 15:24 51.02100 3.07266 37181 ft 494 kts 100°
2026-04-14 15:25 51.00088 3.17870 37183 ft 495 kts 100°
2026-04-14 15:25 50.98080 3.28393 37186 ft 495 kts 100°
2026-04-14 15:26 50.96061 3.38919 37183 ft 494 kts 101°
2026-04-14 15:26 50.94040 3.49394 37183 ft 492 kts 101°
2026-04-14 15:27 50.92055 3.59624 37189 ft 490 kts 101°
2026-04-14 15:27 50.90052 3.69992 37177 ft 491 kts 102°
2026-04-14 15:28 50.88090 3.80168 37167 ft 490 kts 102°
2026-04-14 15:28 50.86092 3.90470 37171 ft 488 kts 102°
2026-04-14 15:29 50.84084 4.00771 37169 ft 487 kts 102°
2026-04-14 15:29 50.82088 4.10951 37164 ft 487 kts 102°
2026-04-14 15:30 50.80059 4.21249 37170 ft 485 kts 102°
2026-04-14 15:30 50.78043 4.31426 37176 ft 485 kts 102°
2026-04-14 15:31 50.76020 4.41587 37179 ft 485 kts 102°
2026-04-14 15:31 50.73983 4.51760 37178 ft 484 kts 102°
2026-04-14 15:32 50.71959 4.61873 37175 ft 485 kts 102°
2026-04-14 15:32 50.69987 4.72083 37174 ft 483 kts 103°
2026-04-14 15:33 50.68027 4.82160 37169 ft 483 kts 103°
2026-04-14 15:33 50.65996 4.92521 37170 ft 484 kts 103°
2026-04-14 15:34 50.63918 5.02647 37175 ft 482 kts 104°
2026-04-14 15:34 50.61865 5.12619 37176 ft 480 kts 103°
2026-04-14 15:35 50.59782 5.22681 37177 ft 480 kts 104°
2026-04-14 15:35 50.58765 5.27572 37164 ft 466 kts 103°
2026-04-14 15:35 50.57777 5.32316 36945 ft 453 kts 103°
2026-04-14 15:36 50.56817 5.36921 36836 ft 440 kts 103°
2026-04-14 15:36 50.55844 5.41582 36854 ft 450 kts 103°
2026-04-14 15:36 50.54847 5.46342 36612 ft 465 kts 103°
2026-04-14 15:36 50.53825 5.51203 36090 ft 468 kts 103°
2026-04-14 15:37 50.52808 5.56025 35605 ft 468 kts 103°
2026-04-14 15:37 50.51789 5.60847 35085 ft 468 kts 103°
2026-04-14 15:37 50.50837 5.65696 34573 ft 466 kts 101°
2026-04-14 15:37 50.49920 5.70673 34005 ft 467 kts 101°
2026-04-14 15:38 50.49006 5.75578 33484 ft 467 kts 101°
2026-04-14 15:38 50.48138 5.80211 32989 ft 467 kts 101°
2026-04-14 15:38 50.47205 5.85189 32467 ft 468 kts 101°
2026-04-14 15:38 50.46253 5.90241 31931 ft 466 kts 101°
2026-04-14 15:39 50.45322 5.95177 31404 ft 466 kts 101°
2026-04-14 15:39 50.44402 6.00035 30883 ft 464 kts 101°
2026-04-14 15:39 50.43462 6.04990 30351 ft 459 kts 101°
2026-04-14 15:39 50.42553 6.09768 29843 ft 453 kts 101°
2026-04-14 15:40 50.41653 6.14485 29343 ft 447 kts 101°
2026-04-14 15:40 50.40765 6.19134 28851 ft 444 kts 101°
2026-04-14 15:40 50.39888 6.23713 28367 ft 442 kts 102°
2026-04-14 15:40 50.38998 6.28341 27879 ft 438 kts 102°
2026-04-14 15:41 50.38121 6.32897 27395 ft 434 kts 102°
2026-04-14 15:41 50.37253 6.37383 26917 ft 431 kts 103°
2026-04-14 15:41 50.36449 6.41863 26436 ft 424 kts 95°
2026-04-14 15:41 50.36120 6.46399 25989 ft 418 kts 91°
2026-04-14 15:42 50.35844 6.50908 25518 ft 414 kts 91°
2026-04-14 15:42 50.35561 6.55400 25060 ft 411 kts 92°
2026-04-14 15:42 50.35278 6.59860 24603 ft 408 kts 92°
2026-04-14 15:42 50.34995 6.64313 24147 ft 405 kts 92°
2026-04-14 15:43 50.34725 6.68526 23717 ft 403 kts 93°
2026-04-14 15:43 50.34447 6.72840 23284 ft 401 kts 94°
2026-04-14 15:43 50.34199 6.76763 22882 ft 398 kts 93°
2026-04-14 15:43 50.33921 6.81235 22428 ft 396 kts 93°
2026-04-14 15:44 50.33585 6.85558 21964 ft 395 kts 102°
2026-04-14 15:44 50.32604 6.89504 21630 ft 394 kts 112°
2026-04-14 15:44 50.31522 6.93185 21194 ft 393 kts 113°
2026-04-14 15:44 50.30360 6.97103 20759 ft 389 kts 113°
2026-04-14 15:45 50.29221 7.00924 20378 ft 385 kts 113°
2026-04-14 15:45 50.28089 7.04723 19974 ft 385 kts 114°
2026-04-14 15:45 50.26951 7.08534 19549 ft 382 kts 113°
2026-04-14 15:45 50.25817 7.12324 19122 ft 379 kts 114°
2026-04-14 15:46 50.24715 7.16003 18710 ft 377 kts 114°
2026-04-14 15:46 50.23602 7.19712 18294 ft 375 kts 114°
2026-04-14 15:46 50.22484 7.23434 17874 ft 372 kts 114°
2026-04-14 15:46 50.21388 7.27077 17463 ft 369 kts 114°
2026-04-14 15:47 50.20300 7.30687 17057 ft 366 kts 114°
2026-04-14 15:47 50.19271 7.34347 16654 ft 363 kts 108°
2026-04-14 15:47 50.18411 7.38010 16259 ft 361 kts 108°
2026-04-14 15:47 50.17533 7.41712 15857 ft 358 kts 108°
2026-04-14 15:48 50.16680 7.45296 15455 ft 355 kts 108°
2026-04-14 15:48 50.15814 7.48919 15074 ft 353 kts 108°
2026-04-14 15:48 50.14961 7.52487 14688 ft 350 kts 108°
2026-04-14 15:48 50.14097 7.56086 14296 ft 347 kts 108°
2026-04-14 15:49 50.13255 7.59594 13905 ft 345 kts 108°
2026-04-14 15:49 50.12416 7.63078 13525 ft 342 kts 108°
2026-04-14 15:49 50.11637 7.66311 13170 ft 341 kts 109°
2026-04-14 15:49 50.10876 7.69699 12840 ft 338 kts 105°
2026-04-14 15:50 50.10186 7.73276 12469 ft 337 kts 105°
2026-04-14 15:50 50.09519 7.76713 12105 ft 336 kts 106°
2026-04-14 15:50 50.08861 7.80097 11742 ft 330 kts 106°
2026-04-14 15:50 50.08202 7.83526 11375 ft 322 kts 103°
2026-04-14 15:51 50.08223 7.86913 11197 ft 309 kts 74°
2026-04-14 15:51 50.08896 7.90092 11184 ft 309 kts 69°
2026-04-14 15:51 50.09641 7.93264 11175 ft 311 kts 69°
2026-04-14 15:51 50.10399 7.96416 11174 ft 311 kts 69°
2026-04-14 15:52 50.11166 7.99580 11172 ft 311 kts 69°
2026-04-14 15:52 50.11932 8.02725 11174 ft 311 kts 68°
2026-04-14 15:52 50.12703 8.05887 11169 ft 305 kts 68°
2026-04-14 15:52 50.13432 8.08888 11155 ft 284 kts 68°
2026-04-14 15:53 50.14113 8.11690 11147 ft 264 kts 68°
2026-04-14 15:53 50.14744 8.14286 11159 ft 255 kts 68°
2026-04-14 15:53 50.15377 8.16892 11152 ft 252 kts 68°
2026-04-14 15:53 50.15990 8.19421 10868 ft 248 kts 68°
2026-04-14 15:54 50.17225 8.24522 9870 ft 256 kts 68°
2026-04-14 15:54 50.17849 8.27107 9434 ft 257 kts 68°
2026-04-14 15:54 50.18481 8.29728 9069 ft 254 kts 68°
2026-04-14 15:55 50.19095 8.32276 8724 ft 250 kts 68°
2026-04-14 15:55 50.19701 8.34801 8393 ft 247 kts 70°
2026-04-14 15:55 50.19766 8.37455 8090 ft 251 kts 108°
2026-04-14 15:55 50.18748 8.39618 8028 ft 250 kts 146°
2026-04-14 15:56 50.17179 8.40755 8023 ft 251 kts 158°
2026-04-14 15:56 50.15562 8.41737 7970 ft 245 kts 158°
2026-04-14 15:56 50.13961 8.42680 7679 ft 241 kts 158°
2026-04-14 15:56 50.12313 8.43044 7193 ft 245 kts 192°
2026-04-14 15:57 50.10845 8.41775 6667 ft 249 kts 230°
2026-04-14 15:57 50.10066 8.39392 6186 ft 249 kts 251°
2026-04-14 15:57 50.09468 8.36829 5800 ft 249 kts 251°
2026-04-14 15:57 50.08874 8.34329 5446 ft 247 kts 251°
2026-04-14 15:58 50.08275 8.31835 5098 ft 245 kts 251°
2026-04-14 15:58 50.07677 8.29360 5004 ft 244 kts 251°
2026-04-14 15:58 50.07081 8.26897 4990 ft 244 kts 251°
2026-04-14 15:58 50.06480 8.24426 4988 ft 244 kts 251°
2026-04-14 15:59 50.05872 8.21925 4988 ft 244 kts 251°
2026-04-14 15:59 50.05275 8.19471 4987 ft 243 kts 251°
2026-04-14 15:59 50.04674 8.17007 4989 ft 243 kts 250°
2026-04-14 15:59 50.04075 8.14554 4986 ft 242 kts 250°
2026-04-14 16:00 50.03476 8.12104 4992 ft 243 kts 250°
2026-04-14 16:00 50.02878 8.09654 4984 ft 242 kts 250°
2026-04-14 16:00 50.02287 8.07228 4986 ft 242 kts 250°
2026-04-14 16:00 50.01688 8.04778 4985 ft 242 kts 250°
2026-04-14 16:01 50.01091 8.02331 4986 ft 242 kts 250°
2026-04-14 16:01 50.00489 7.99870 4984 ft 242 kts 250°
2026-04-14 16:01 49.99886 7.97409 4986 ft 243 kts 251°
2026-04-14 16:01 49.98982 7.95237 4989 ft 245 kts 217°
2026-04-14 16:02 49.97401 7.94360 5012 ft 244 kts 177°
2026-04-14 16:02 49.95725 7.94846 5010 ft 242 kts 163°
2026-04-14 16:02 49.94097 7.95535 4986 ft 242 kts 159°
2026-04-14 16:02 49.92804 7.97072 5002 ft 235 kts 118°
2026-04-14 16:03 49.92231 7.99397 5008 ft 232 kts 104°
2026-04-14 16:03 49.91788 8.01815 4986 ft 231 kts 103°
2026-04-14 16:03 49.91617 8.04282 4991 ft 228 kts 82°
2026-04-14 16:03 49.91881 8.06689 4993 ft 227 kts 76°
2026-04-14 16:04 49.92265 8.09061 4986 ft 227 kts 72°
2026-04-14 16:04 49.92726 8.11414 4985 ft 227 kts 70°
2026-04-14 16:04 49.93233 8.13753 4980 ft 224 kts 69°
2026-04-14 16:04 49.93740 8.15967 4990 ft 212 kts 68°
2026-04-14 16:05 49.94223 8.18020 5006 ft 199 kts 68°
2026-04-14 16:05 49.94711 8.20055 4842 ft 203 kts 67°
2026-04-14 16:05 49.95210 8.22125 4596 ft 205 kts 67°
2026-04-14 16:05 49.95713 8.24202 4330 ft 203 kts 67°
2026-04-14 16:06 49.96203 8.26227 4056 ft 198 kts 67°
2026-04-14 16:06 49.96677 8.28181 3791 ft 193 kts 68°
2026-04-14 16:06 49.97148 8.30128 3528 ft 188 kts 67°
2026-04-14 16:06 49.97600 8.31999 3272 ft 184 kts 67°
2026-04-14 16:07 49.98042 8.33826 3023 ft 180 kts 67°
2026-04-14 16:07 49.98478 8.35632 2796 ft 174 kts 67°
2026-04-14 16:07 49.98900 8.37378 2549 ft 170 kts 67°
2026-04-14 16:07 49.99307 8.39070 2314 ft 165 kts 67°
2026-04-14 16:08 49.99698 8.40693 2114 ft 150 kts 67°
2026-04-14 16:08 50.00040 8.42115 1905 ft 134 kts 66°
2026-04-14 16:08 50.00352 8.43410 1707 ft 125 kts 66°
2026-04-14 16:08 50.00657 8.44678 1553 ft 126 kts 66°
2026-04-14 16:09 50.00967 8.45965 1393 ft 127 kts 67°
2026-04-14 16:09 50.01279 8.47263 1227 ft 129 kts 68°
2026-04-14 16:09 50.01588 8.48571 1050 ft 129 kts 68°
2026-04-14 16:09 50.01911 8.49870 873 ft 128 kts 68°
2026-04-14 16:10 50.02224 8.51193 707 ft 129 kts 69°
2026-04-14 16:10 50.02529 8.52487 538 ft 131 kts 68°
2026-04-14 16:10 50.02849 8.53813 389 ft 132 kts 68°
2026-04-14 16:10 50.03140 8.55002 371 ft 98 kts 69°
2026-04-14 16:11 50.03319 8.55776 371 ft 55 kts 68°
2026-04-14 16:11 50.03427 8.56196 371 ft 33 kts 56°
2026-04-14 16:11 50.03584 8.56429 371 ft 29 kts 38°
2026-04-14 16:11 50.03728 8.56616 371 ft 24 kts 40°
2026-04-14 16:12 50.03814 8.56815 371 ft 22 kts 71°
2026-04-14 16:12 50.03870 8.57045 371 ft 23 kts 70°
2026-04-14 16:12 50.03930 8.57292 371 ft 25 kts 69°
2026-04-14 16:12 50.03992 8.57556 371 ft 26 kts 69°
2026-04-14 16:13 50.04059 8.57831 371 ft 27 kts 68°
2026-04-14 16:13 50.04127 8.58116 371 ft 28 kts 68°
2026-04-14 16:13 50.04195 8.58399 371 ft 28 kts 68°
2026-04-14 16:13 50.04262 8.58687 371 ft 26 kts 69°
2026-04-14 16:14 50.04329 8.58960 371 ft 27 kts 70°
2026-04-14 16:14 50.04395 8.59239 371 ft 25 kts 68°
2026-04-14 16:14 50.04443 8.59430 371 ft 11 kts 53°
2026-04-14 16:14 50.04488 8.59471 371 ft 7 kts
2026-04-14 16:15 50.04546 8.59474 371 ft 4 kts 355°
2026-04-14 16:15 50.04547 8.59474 371 ft 0 kts 355°
2026-04-14 16:15 50.04548 8.59473 371 ft 0 kts 355°
2026-04-14 16:15 50.04550 8.59473 371 ft 0 kts 355°
2026-04-14 16:16 50.04551 8.59473 371 ft 1 kts 355°
2026-04-14 16:16 50.04579 8.59470 371 ft 8 kts 355°
2026-04-14 16:17 50.04678 8.59451 372 ft 20 kts 348°
2026-04-14 16:17 50.04796 8.59389 372 ft 8 kts 339°
2026-04-14 16:17 50.04807 8.59383 372 ft 0 kts 340°
2026-04-14 16:18 50.04810 8.59381 372 ft 2 kts 341°
2026-04-14 16:18 50.04842 8.59371 372 ft 7 kts 354°
2026-04-14 16:18 50.04919 8.59377 372 ft 13 kts 358°
2026-04-14 16:18 50.05018 8.59329 372 ft 16 kts 338°
2026-04-14 16:19 50.05078 8.59213 372 ft 11 kts 245°
2026-04-14 16:19 50.05024 8.59202 372 ft 8 kts 158°
2026-04-14 16:19 50.04999 8.59217 372 ft 0 kts 160°